Date,TemperatureHighF,TemperatureAvgF,TemperatureLowF,DewpointHighF,DewpointAvgF,DewpointLowF,HumidityHigh,HumidityAvg,HumidityLow,PressureMaxIn,PressureMinIn,WindSpeedMaxMPH,WindSpeedAvgMPH,GustSpeedMaxMPH,PrecipitationSumIn
2013-10-1,78,63,50,54,50,47,92,65,35,30.30,30.19,3,1,4,0.00
2013-10-2,78,64,52,53,46,38,85,56,24,30.29,30.18,7,2,8,0.00
2013-10-3,71,63,52,42,36,28,66,39,21,30.37,30.27,9,4,16,0.00
2013-10-4,78,69,61,40,30,23,34,24,14,30.41,30.32,6,4,12,0.00
2013-10-5,83,69,57,32,28,20,35,22,10,30.51,30.40,5,1,7,0.00
2013-10-6,84,65,48,44,34,23,70,37,11,30.46,30.30,4,1,8,0.00
2013-10-7,84,67,50,43,34,19,67,35,9,30.31,30.14,3,1,5,0.00
2013-10-8,79,64,50,45,40,31,70,44,19,30.19,29.98,5,1,8,0.00
2013-10-9,72,61,48,44,40,34,75,48,27,30.06,29.90,5,2,8,0.00
2013-10-10,74,63,54,45,40,35,64,43,27,30.28,30.05,5,1,8,0.00
2013-10-11,55,50,47,47,44,42,88,79,66,30.37,30.28,1,0,1,0.00
2013-10-12,65,61,58,45,44,43,59,53,46,30.20,30.15,4,2,6,0.00
2013-10-13,74,64,54,47,39,33,62,41,23,30.36,30.20,5,2,9,0.00
2013-10-14,77,62,47,47,36,26,75,43,16,30.43,30.30,3,1,4,0.00
2013-10-15,77,64,49,41,34,26,69,36,17,30.37,30.25,6,1,9,0.00
2013-10-16,80,64,48,44,34,27,64,36,17,30.41,30.30,4,1,7,0.00
2013-10-17,82,63,47,43,36,26,74,42,16,30.41,30.25,3,1,4,0.00
2013-10-18,82,64,48,47,40,33,81,46,18,30.36,30.26,4,1,6,0.00
2013-10-19,82,63,46,46,41,32,85,49,17,30.40,30.28,3,1,5,0.00
2013-10-20,85,65,47,48,42,34,81,49,17,30.33,30.17,4,1,6,0.00
2013-10-21,82,65,49,50,45,39,84,53,23,30.29,30.18,4,1,5,0.00
2013-10-22,83,65,49,51,45,38,90,54,21,30.32,30.19,3,1,4,0.00
2013-10-23,84,64,48,49,45,34,86,55,17,30.26,30.15,4,1,6,0.00
2013-10-24,71,59,47,48,46,44,91,65,37,30.36,30.22,9,2,11,0.00
2013-10-25,78,60,47,50,46,40,93,63,28,30.48,30.36,3,1,4,0.00
2013-10-26,81,64,47,50,44,34,93,54,20,30.47,30.30,2,0,4,0.00
2013-10-27,68,56,46,48,45,39,89,68,45,30.31,29.86,8,2,13,0.00
2013-10-28,65,52,43,45,41,35,86,66,36,30.13,29.93,6,1,8,0.00
2013-10-29,62,52,44,48,44,42,95,78,53,30.37,30.13,3,1,5,0.00
2013-10-30,66,53,43,48,44,41,95,73,42,30.48,30.37,3,1,4,0.00
2013-10-31,73,56,44,50,44,40,95,68,32,30.51,30.37,5,1,7,0.00